RH
43 42 39 35 33 35 34 26 28 25 19 31 33 38 43 32 28 34 36 38 46 45 40 43 43 42 48 50 44 43 42 47 52 48 53 49 45 39 23 15 10 10 10 13 16 16 12 5 4 2 3 4 5 8 7 7 6 8 6 15 19 24 52 63 73 74 70 69 55 47 38 37 35 36 51 32 12 22 27 22 17 17 25 35 41 49 57 63 69 74 76 71 64 57 62 68 72
42 40 37 34 32 33 29 20 27 23 17 30 31 36 40 29 32 39 40 45 49 44 39 38 37 37 39 37 34 42 47 45 43 40 47 43 35 30 18 12 9 10 9 12 14 11 9 6 4 2 2 2 3 3 4 4 4 5 3 7 4 9 22 45 75 63 56 59 40 31 28 33 21 15 26 13 13 19 18 14 11 12 12 19 30 39 45 53 59 62 64 65 60 50 53 58 61
42 38 35 37 32 27 22 18 25 23 19 32 38 36 30 31 44 48 47 48 45 42 39 35 37 40 38 39 41 45 49 43 37 34 36 36 31 23 14 10 8 9 9 11 11 10 9 8 5 3 3 2 2 2 3 3 3 4 4 5 3 6 5 21 50 47 50 42 22 19 16 21 10 6 10 4 13 14 12 8 5 8 6 11 21 27 29 35 42 46 47 50 51 45 46 50 53
38 35 33 32 29 22 20 23 21 21 23 33 44 34 25 40 52 52 48 44 43 43 44 40 39 38 32 40 44 40 41 39 36 32 30 35 36 25 14 9 8 9 9 10 11 11 11 10 7 4 3 3 3 3 4 4 4 5 4 6 4 5 4 8 27 44 51 30 15 15 8 10 6 6 7 5 9 7 7 5 5 6 5 7 10 14 15 16 19 24 28 32 36 36 39 44 46
29 30 28 25 27 20 16 19 15 23 32 31 36 30 29 46 54 50 45 44 44 47 50 43 40 40 31 31 36 37 38 37 34 31 30 32 32 24 12 7 8 9 9 11 12 13 12 12 10 7 4 3 4 3 4 4 4 5 4 6 5 5 5 4 13 29 33 21 15 11 6 7 6 7 6 7 8 5 5 5 6 5 4 5 5 7 5 5 7 10 13 17 22 24 28 34 41
24 25 19 18 21 18 18 16 14 25 30 26 28 29 33 45 50 46 45 48 48 48 46 40 44 44 33 27 29 36 38 36 33 29 28 25 23 17 8 6 8 9 10 11 12 13 14 14 12 10 8 5 5 4 4 5 4 5 5 5 6 6 6 5 6 8 9 9 8 7 8 8 7 9 7 8 8 6 5 5 6 5 5 4 4 4 3 4 3 5 6 8 11 14 16 19 26
25 24 17 17 14 16 23 19 18 23 22 23 24 26 34 41 43 43 45 47 49 46 36 38 46 39 31 28 26 32 34 33 29 25 22 17 16 11 6 7 9 10 10 11 12 14 14 14 14 13 11 9 7 6 6 6 6 6 6 6 6 6 6 6 5 5 4 4 5 7 8 8 9 9 9 9 8 7 5 6 7 6 6 5 5 4 4 4 3 4 4 4 5 7 9 11 13
23 22 16 19 17 16 20 17 21 24 22 26 26 25 35 40 36 39 39 36 42 42 35 39 40 35 33 28 25 28 29 27 23 20 18 12 9 6 6 8 9 10 10 12 13 14 15 15 16 15 14 13 11 10 9 9 9 9 9 8 8 8 7 7 6 6 5 4 4 5 7 9 10 9 10 10 9 8 6 7 7 7 7 6 6 4 5 4 4 4 3 4 4 4 5 6 8
20 17 15 19 20 17 18 17 22 23 22 28 33 32 36 37 30 34 33 29 35 33 33 39 32 32 34 28 25 26 25 24 19 17 15 9 6 5 7 9 9 10 11 13 13 14 15 16 17 17 16 16 15 13 12 12 12 12 12 11 10 10 9 8 8 7 6 4 3 4 6 7 9 10 11 10 10 9 8 8 8 8 8 7 7 5 6 5 5 4 4 4 3 4 3 4 5
19 14 14 18 20 20 19 18 21 20 18 24 32 34 37 36 28 32 31 26 28 23 26 34 31 30 29 27 26 26 24 21 16 14 12 7 5 6 8 9 10 11 12 13 14 14 15 16 17 17 17 17 17 16 15 15 14 14 14 14 14 12 12 11 9 8 7 5 4 3 5 6 8 10 10 11 11 10 9 9 9 9 9 9 8 7 6 6 6 5 4 4 4 4 3 4 3
22 14 12 20 23 19 18 19 22 21 19 21 26 30 34 33 28 31 32 27 24 21 25 29 29 28 25 22 24 27 26 19 12 9 8 6 6 8 8 10 10 11 12 13 14 15 15 16 17 17 18 18 18 17 17 17 16 17 16 16 16 15 14 13 12 10 8 6 4 2 3 5 7 9 11 11 11 11 10 10 10 10 10 9 9 8 7 6 5 5 4 4 4 3 3 4 3
25 20 15 22 23 15 14 18 21 21 21 23 24 27 29 30 28 28 30 28 23 20 25 26 23 23 22 21 22 25 25 21 13 7 7 7 7 9 9 10 11 11 12 13 13 15 15 15 16 17 18 18 18 18 18 18 18 18 18 18 18 18 16 16 14 11 10 7 5 3 2 4 6 9 10 10 11 10 10 10 10 10 11 10 10 9 7 7 6 5 4 3 3 3 3 3 3
23 21 18 22 20 15 14 17 20 22 23 20 21 26 26 28 27 25 24 25 22 19 23 24 20 19 17 18 23 23 22 21 12 7 7 8 9 9 10 10 11 12 12 13 13 14 15 15 16 16 17 18 18 18 18 18 19 19 19 20 19 20 19 18 16 14 12 10 7 5 2 2 4 7 9 11 11 10 10 11 10 10 10 10 10 8 7 7 6 6 5 4 3 3 3 3 3
21 19 19 22 18 15 15 20 21 20 21 18 19 24 24 25 23 21 20 20 20 19 22 23 20 19 15 15 22 22 20 18 11 8 8 8 9 9 10 11 11 12 12 13 13 13 14 15 16 16 17 18 18 18 18 18 19 19 20 20 21 21 21 20 19 17 15 13 11 8 5 2 2 5 9 12 13 13 12 11 11 10 9 9 8 7 7 6 6 6 6 5 4 4 4 3 3
19 18 19 22 17 15 17 20 19 18 20 19 21 22 20 21 20 20 18 17 19 20 22 24 21 17 14 14 18 20 18 15 11 8 8 9 9 10 10 11 11 12 12 12 13 14 14 15 16 17 17 18 19 19 19 20 19 20 20 20 21 21 22 22 21 21 19 18 16 13 10 5 2 3 7 11 14 14 13 13 12 10 9 8 7 6 6 6 6 6 6 5 5 5 5 4 4
16 18 24 25 18 18 19 17 17 19 20 20 21 20 18 19 19 20 18 17 21 21 20 21 21 16 13 15 16 17 17 14 11 8 9 9 10 10 10 11 11 11 12 13 13 13 14 15 16 17 18 18 18 19 20 20 20 20 20 20 21 22 23 23 23 23 22 22 20 18 14 9 4 2 4 8 12 14 14 13 11 10 9 8 7 6 5 5 5 5 5 5 5 6 5 5 4
13 21 27 26 20 19 18 15 16 20 21 21 20 19 18 19 20 20 19 19 19 18 17 18 20 17 15 17 17 16 16 14 11 9 9 9 10 10 10 11 11 12 12 13 13 14 14 15 16 17 17 18 18 18 19 20 20 20 20 21 21 21 22 23 24 24 24 24 23 22 19 15 9 4 2 5 9 13 13 12 12 12 11 9 8 5 5 5 5 4 5 6 7 6 4 4 4
14 24 25 23 22 20 16 12 13 15 17 19 18 18 17 17 22 21 18 18 16 15 16 17 19 19 18 19 18 16 16 13 11 11 10 10 10 10 11 11 11 12 13 14 14 15 16 16 17 17 17 18 18 18 19 19 20 20 20 20 21 21 22 22 23 24 25 25 25 24 22 20 16 8 3 2 6 10 13 13 13 13 11 10 9 6 5 5 5 5 8 11 10 8 5 3 4
13 18 21 22 21 17 13 11 12 11 13 16 16 16 15 15 19 19 17 15 15 17 16 16 18 18 19 20 18 17 17 15 13 13 12 11 11 10 11 12 13 14 15 16 17 17 18 18 18 18 18 18 18 18 18 19 19 20 20 20 21 21 21 22 22 23 24 24 25 25 25 24 21 14 8 3 3 7 12 14 14 13 12 10 9 7 6 6 8 10 12 15 14 11 8 6 5
12 15 21 21 15 13 12 11 12 12 12 13 14 16 15 15 16 17 16 14 14 17 16 16 17 17 18 20 18 17 17 16 15 15 15 13 12 11 11 13 15 17 19 20 20 21 21 20 20 19 19 18 18 18 18 19 19 20 20 20 21 21 21 22 22 22 23 23 24 25 25 25 24 20 15 8 3 4 9 13 15 14 12 10 9 8 7 8 13 15 14 16 17 14 12 10 7
13 15 19 15 10 12 13 13 13 13 12 12 14 16 14 14 16 16 14 16 17 14 14 15 15 16 16 17 18 18 16 16 15 14 14 14 13 12 12 13 16 18 20 21 22 22 22 21 20 19 19 18 18 18 19 19 20 20 20 21 21 21 21 22 22 22 22 23 23 24 25 26 26 24 22 15 7 3 5 12 15 15 13 11 10 9 9 12 14 15 16 18 20 17 14 12 10
14 14 14 11 10 12 14 14 14 13 12 12 14 14 14 15 16 16 15 17 17 13 15 15 14 15 15 14 16 18 19 18 16 14 12 12 12 12 13 14 16 18 18 20 20 20 21 21 20 19 19 19 18 19 19 20 20 20 20 21 21 21 22 22 22 22 22 23 23 23 24 25 26 26 25 22 14 5 3 8 13 15 14 12 11 10 11 13 13 15 17 19 19 17 14 12 13
16 14 10 11 12 13 15 15 13 14 13 13 15 16 16 16 15 15 15 16 15 14 15 15 16 16 15 14 14 17 20 20 18 16 13 11 12 12 13 15 16 17 18 18 19 19 20 19 19 19 19 19 19 19 19 20 20 20 21 21 21 22 22 22 22 22 22 22 23 23 23 24 25 26 26 25 21 11 4 4 10 15 15 13 12 11 12 13 13 14 16 18 18 17 15 14 15
17 16 10 12 13 14 16 15 13 14 15 14 16 17 15 15 15 14 14 15 15 15 15 15 17 18 17 17 16 17 19 20 20 18 16 14 14 14 14 16 17 18 18 18 19 20 19 19 20 20 20 20 19 20 20 20 20 20 21 21 21 22 22 22 22 23 23 23 23 23 23 23 24 25 26 26 26 19 9 3 7 14 17 15 13 13 13 13 14 15 16 17 16 16 16 16 17
20 16 10 11 13 14 16 15 14 14 15 16 16 16 14 14 15 14 14 14 15 15 15 15 17 18 18 18 16 17 18 19 19 19 19 18 17 17 17 16 17 18 18 18 19 19 19 20 20 20 20 20 20 20 20 20 20 21 21 21 21 22 22 22 23 23 23 23 23 23 23 23 23 24 25 25 27 25 16 6 4 11 17 17 15 14 14 15 16 16 16 16 16 16 17 17 17
18 13 11 11 13 14 16 14 15 16 15 16 16 16 15 14 15 15 14 14 14 14 15 15 15 17 18 18 18 17 18 19 19 19 19 20 20 19 17 16 17 17 18 19 19 19 19 20 20 20 21 21 21 21 21 21 21 21 21 21 22 22 22 22 23 23 23 23 23 23 23 23 23 24 24 25 26 27 23 12 4 7 16 19 16 15 16 17 17 16 16 16 16 17 17 17 17
15 13 12 11 13 13 15 14 14 16 15 15 16 16 15 14 17 18 15 14 15 14 15 15 15 16 17 18 18 18 18 18 18 19 19 19 19 17 16 17 17 17 18 19 19 19 20 20 20 20 21 21 21 22 22 22 22 22 22 22 22 23 23 23 23 23 23 24 23 24 24 24 24 23 24 24 25 27 27 19 7 5 13 18 18 16 16 17 16 15 16 17 17 16 17 17 18
12 14 15 14 12 13 14 13 14 15 15 15 15 17 16 16 21 20 15 15 15 15 15 15 15 15 16 17 18 18 18 18 18 18 18 17 17 16 16 16 16 16 17 18 19 19 20 20 21 21 21 21 22 22 23 23 23 23 23 23 23 23 23 23 24 24 24 24 24 24 24 24 24 24 24 24 25 26 28 24 13 5 9 16 19 17 16 16 15 15 15 16 16 17 18 18 20
13 13 21 20 12 13 14 12 14 15 15 16 17 22 20 19 22 17 14 16 15 14 14 14 15 15 16 16 16 16 15 15 15 15 14 14 15 16 17 17 17 17 17 18 18 19 19 19 20 20 21 21 22 22 22 23 23 23 23 23 23 24 24 24 24 24 24 24 24 24 24 24 24 24 24 24 25 25 27 27 19 9 7 13 18 18 16 14 15 15 15 16 18 20 20 21 25
17 16 22 25 21 19 14 12 15 15 16 15 20 29 24 18 18 14 14 16 14 14 14 14 14 15 16 16 16 14 13 13 13 13 14 15 17 17 17 16 17 17 17 17 17 18 18 19 19 19 20 20 21 21 22 22 23 23 23 23 23 23 23 24 25 25 25 25 25 25 25 25 24 24 24 24 25 25 26 28 24 13 7 10 15 18 17 15 15 15 16 19 20 21 20 22 27
22 27 29 30 30 25 15 15 16 15 17 15 22 35 27 16 16 14 15 15 14 14 14 15 15 15 15 16 17 16 15 15 14 16 17 17 18 18 18 18 18 19 19 18 18 19 19 19 21 21 21 21 22 23 24 24 24 24 24 24 24 24 23 24 25 25 26 26 26 26 25 25 25 24 24 25 25 25 26 27 27 18 8 8 13 17 18 16 15 15 16 19 20 21 22 23 26
23 33 34 28 28 24 19 17 16 17 18 15 24 37 29 17 14 14 15 15 14 15 14 15 15 15 15 15 16 16 16 16 17 18 18 18 19 20 21 22 22 22 21 21 21 22 22 22 23 24 24 24 25 25 26 26 26 26 26 26 25 25 25 24 25 25 26 26 26 26 26 25 25 25 25 25 25 25 26 26 27 23 12 8 11 15 18 18 15 15 17 20 22 24 25 25 28
25 29 28 25 24 25 24 21 19 19 20 18 23 33 29 18 14 14 15 15 15 15 15 16 16 16 16 16 16 16 17 17 17 18 19 20 22 23 23 22 23 22 22 22 23 23 24 25 25 26 26 27 27 27 28 28 28 28 28 28 28 27 26 25 25 26 26 26 26 26 26 26 26 25 26 25 26 26 26 26 27 26 17 9 10 13 17 18 16 16 17 20 24 28 29 29 31
29 29 28 25 23 25 27 27 23 20 26 29 25 29 29 21 17 16 15 15 15 15 15 16 16 16 17 17 17 17 17 19 20 21 21 22 22 22 22 22 22 22 23 24 25 26 26 27 28 28 29 29 30 30 30 30 30 31 30 30 31 29 28 27 27 26 26 26 26 26 26 26 26 26 26 26 26 26 26 26 26 27 22 13 10 11 15 18 18 17 18 20 24 30 32 31 34
34 34 34 31 29 27 26 31 32 25 31 35 29 29 27 21 18 16 15 15 15 15 15 16 16 17 17 17 17 18 19 21 23 22 21 21 21 22 22 23 24 24 25 26 28 30 30 31 31 31 33 33 34 34 34 35 34 33 32 32 33 32 31 30 29 28 28 27 27 27 26 26 26 26 26 26 26 26 26 26 26 27 24 18 12 11 13 17 18 17 18 20 22 25 28 29 34
32 34 36 38 38 31 23 32 37 29 33 35 30 30 25 20 19 16 15 14 14 15 15 17 17 16 17 18 19 19 21 23 23 22 21 22 22 23 24 24 26 27 28 30 32 33 34 35 35 36 37 37 38 39 39 39 39 38 37 36 35 34 34 33 33 31 31 30 29 29 28 27 27 27 27 27 27 27 27 27 26 27 25 21 15 12 12 16 19 18 19 22 22 23 25 29 36
27 33 38 41 41 34 23 31 38 30 34 35 29 29 24 21 20 17 15 14 14 16 16 18 17 16 17 18 20 20 22 23 22 23 24 26 26 26 27 27 29 30 32 35 34 34 37 39 40 40 41 42 43 43 43 43 43 44 43 42 40 38 37 37 36 36 34 34 33 32 31 30 29 28 27 27 27 27 27 27 26 27 25 22 17 14 12 16 19 19 19 22 23 24 24 27 34
31 35 37 37 37 32 25 31 36 30 36 36 27 28 26 22 21 18 16 15 15 15 16 17 16 17 18 19 20 20 21 22 22 24 25 26 27 27 28 30 32 33 34 35 33 36 39 39 41 44 46 49 49 49 48 47 47 47 47 46 44 42 41 40 39 38 37 36 35 34 33 32 31 30 29 29 28 28 28 27 27 26 25 22 18 15 13 14 18 19 19 20 22 24 24 24 28
35 35 37 38 34 31 32 38 35 30 36 36 28 30 29 24 23 18 15 15 17 17 16 16 15 16 18 19 20 20 20 22 23 25 25 26 27 27 30 32 34 35 35 34 35 39 39 36 37 41 45 49 52 54 55 54 52 50 50 50 48 46 45 44 42 39 38 37 36 36 35 35 33 33 32 31 30 29 29 28 28 27 26 23 18 16 15 14 16 19 20 19 21 24 24 24 27
38 37 37 38 34 31 37 42 38 31 34 35 32 37 36 28 24 18 17 18 18 20 18 17 17 17 18 19 19 20 23 24 25 26 27 27 28 30 32 35 36 36 36 36 39 42 41 40 40 40 42 43 45 49 53 57 57 56 56 56 54 52 51 50 47 45 42 40 39 39 38 37 36 36 35 33 32 31 30 29 29 28 26 24 19 16 16 15 16 18 20 20 21 24 24 24 28
36 38 38 35 33 34 35 37 36 32 36 42 39 39 37 29 23 19 18 20 19 19 19 18 19 18 18 19 21 24 26 26 27 27 28 29 31 33 34 36 37 37 38 40 43 45 45 45 46 45 44 42 40 41 45 49 54 58 62 63 62 61 60 59 57 55 51 46 44 42 40 40 38 37 36 35 34 33 32 31 30 29 27 25 20 17 16 16 17 18 20 21 21 23 25 28 30
31 38 41 33 31 35 36 37 39 36 39 46 42 39 37 25 19 22 21 21 20 19 19 19 19 18 19 21 24 27 27 27 28 28 30 32 33 35 36 38 38 38 40 43 46 48 48 47 46 46 45 44 42 42 45 47 50 56 62 65 67 67 66 65 64 62 57 52 47 43 41 40 38 39 38 37 36 35 34 32 31 30 28 26 22 17 15 16 18 19 21 22 22 22 28 35 33
32 40 43 35 31 36 39 41 45 42 37 39 38 39 42 31 21 23 23 23 23 22 21 20 18 19 22 25 27 27 27 28 28 30 32 34 35 36 38 39 39 41 42 45 50 51 50 48 47 46 46 46 47 48 50 51 52 53 56 58 61 64 66 66 66 64 61 57 52 46 42 40 39 39 39 39 38 37 36 35 34 32 30 29 25 20 16 15 18 21 23 23 23 24 28 35 32
38 44 42 36 35 39 42 43 46 43 35 36 37 36 42 40 28 24 24 25 26 25 24 23 21 24 27 27 27 27 28 29 30 32 33 34 37 38 39 41 41 43 44 49 53 54 54 53 52 51 50 51 53 55 56 56 54 54 53 49 46 48 53 58 62 64 63 62 59 53 48 44 41 41 41 41 40 39 38 37 36 35 33 31 28 24 19 15 17 22 25 25 24 25 26 30 31
41 45 40 34 36 40 42 44 43 39 38 42 42 39 43 41 27 23 24 25 27 29 29 30 27 27 28 26 27 28 29 31 31 32 34 35 38 38 40 42 43 44 48 53 56 56 56 56 56 57 56 56 57 58 58 57 56 54 52 48 44 43 46 52 58 61 62 64 64 61 54 47 44 43 43 43 43 42 41 39 38 37 35 33 30 27 21 16 16 20 25 26 25 26 25 27 29
41 44 44 43 45 45 44 46 40 36 45 49 42 38 41 39 27 22 23 27 33 35 33 32 29 27 27 27 29 31 31 31 32 33 35 37 38 39 41 43 44 47 51 56 58 56 56 56 57 59 59 59 58 57 56 56 55 55 54 52 51 49 48 51 54 57 60 63 65 64 59 53 47 45 44 43 43 43 43 42 41 39 37 36 32 29 24 18 16 20 25 28 27 27 26 27 28
38 40 46 48 49 46 42 40 34 40 52 47 34 30 33 37 33 30 32 35 39 38 33 32 29 27 28 29 30 32 31 32 33 34 35 37 39 40 42 45 46 49 54 58 57 54 54 56 57 59 59 58 58 57 58 57 55 55 57 58 57 55 52 52 52 53 56 60 62 63 62 58 53 48 45 44 43 43 43 43 43 41 39 38 35 32 28 21 18 21 27 31 30 29 27 27 28
35 39 40 42 43 38 37 34 35 52 57 38 29 30 34 38 37 38 41 39 40 41 37 34 32 28 28 29 30 30 32 32 34 35 36 38 41 42 44 47 48 52 56 56 54 53 55 57 58 58 58 57 57 58 59 60 58 55 55 56 56 55 54 55 55 55 56 58 60 62 61 60 57 52 47 45 44 43 43 43 43 43 42 41 38 35 32 25 21 24 29 33 33 31 30 28 29
38 39 36 43 45 37 40 41 42 53 48 32 30 33 37 35 30 35 38 34 36 37 33 32 30 28 28 28 30 30 32 33 35 37 38 40 43 45 47 48 50 53 56 54 52 53 55 56 57 57 58 58 57 57 57 58 59 57 55 54 53 53 53 56 57 57 58 58 59 60 60 59 58 56 52 47 45 42 41 42 41 42 43 43 41 38 35 29 24 25 31 36 36 34 32 30 30
37 35 34 45 47 43 47 45 40 45 40 30 29 33 40 35 28 32 32 30 31 28 27 29 26 26 27 27 29 30 31 34 37 39 41 43 45 47 48 48 51 55 57 55 53 54 56 57 57 57 59 59 59 60 59 59 59 58 58 57 56 57 58 59 58 57 58 58 59 59 59 58 57 56 55 52 47 42 40 39 39 41 42 43 43 41 38 33 27 28 33 39 41 38 36 34 32
33 29 30 40 42 45 51 47 46 51 45 35 34 37 41 39 34 32 28 27 26 24 26 26 23 24 26 27 29 31 33 36 39 41 42 44 46 47 49 50 55 57 55 54 53 55 57 56 57 58 60 62 62 62 62 61 60 61 61 61 62 62 63 64 61 56 55 57 59 60 59 58 56 55 55 55 52 46 40 37 37 40 41 42 44 44 41 36 32 32 36 43 47 45 42 38 36
31 25 32 41 39 39 46 46 43 48 50 46 44 40 34 32 33 30 29 29 25 24 25 23 24 25 24 28 30 32 36 38 41 44 44 45 47 50 53 55 56 54 52 53 53 54 54 53 54 56 59 62 64 66 66 65 64 64 65 65 65 64 64 66 64 60 57 57 59 61 62 60 56 54 54 54 55 52 46 40 38 39 41 42 45 46 44 40 36 36 39 46 51 52 50 45 42
31 27 36 40 33 32 43 50 40 42 55 50 41 38 30 30 37 33 30 33 30 28 27 23 25 26 26 30 32 34 39 41 45 46 44 47 51 54 56 56 53 51 52 53 52 51 51 52 53 56 58 62 66 69 70 71 72 71 71 69 67 67 66 66 66 65 63 61 61 62 64 63 58 56 56 55 54 54 51 47 43 42 42 43 46 48 48 45 42 41 43 48 53 56 57 54 51
34 34 39 38 36 33 37 51 51 52 61 47 33 38 35 34 43 39 31 34 34 32 30 26 26 27 29 32 34 38 42 45 46 44 46 53 57 58 58 55 53 52 52 52 52 52 51 52 55 59 62 65 69 71 71 71 73 73 72 70 68 68 68 69 69 66 65 64 64 64 65 65 62 59 59 59 57 55 53 51 49 48 46 46 48 50 51 49 47 46 48 52 55 60 63 63 60
35 38 39 37 46 46 39 48 57 63 65 51 38 40 38 38 42 38 33 34 35 33 31 30 30 30 32 35 38 41 44 45 44 45 53 59 60 58 55 53 53 53 53 54 54 55 54 56 61 64 65 66 67 68 68 67 66 68 70 70 70 70 70 71 70 67 66 65 65 65 66 67 67 64 62 62 60 57 56 55 54 53 50 49 50 52 53 53 52 53 54 56 60 64 67 68 67
35 36 36 33 39 45 45 47 51 58 63 58 50 48 43 38 34 32 32 32 34 35 34 34 34 34 35 37 40 42 45 45 44 51 60 61 57 55 53 55 55 55 57 57 58 60 62 64 65 64 64 67 68 68 68 67 66 66 67 69 72 73 72 71 70 68 67 66 67 68 67 67 68 66 63 62 62 60 59 58 59 59 55 52 53 54 56 57 58 58 59 60 63 67 71 71 70
41 41 43 42 38 37 45 50 45 48 57 60 60 58 46 33 28 29 29 30 34 37 37 37 36 36 38 40 41 45 47 44 48 59 62 57 56 57 58 59 60 60 60 59 61 67 73 74 71 67 66 65 68 70 70 69 71 71 71 72 73 73 72 72 71 69 67 66 67 69 69 68 68 66 65 65 65 63 61 61 63 62 58 55 56 57 59 61 63 62 62 63 65 70 73 74 74
38 39 40 43 43 42 52 59 50 47 56 60 64 65 50 32 25 26 27 30 35 37 37 39 38 37 40 42 45 49 46 45 56 63 58 58 62 61 59 60 60 61 62 65 72 77 78 74 70 69 68 66 67 65 60 61 69 75 78 77 76 74 74 73 68 63 63 65 67 70 72 70 69 69 69 70 69 67 66 66 67 65 62 60 60 60 62 65 66 66 66 66 67 71 75 77 77
Wind_Speed
3 5 5 2 3 4 6 7 4 2 3 0 4 2 3 4 5 7 6 5 3 4 5 5 4 4 3 1 2 2 2 2 1 1 1 4 9 8 7 6 3 1 5 6 7 10 15 18 17 16 14 14 13 14 14 15 16 16 16 16 16 16 15 15 15 15 15 15 15 16 17 17 17 17 17 17 17 16 15 14 14 14 14 14 14 15 15 14 14 14 14 16 16 16 17 17 19
3 5 4 5 4 5 6 2 2 2 3 2 4 3 5 4 4 6 6 5 5 6 6 5 3 3 3 1 1 1 2 2 1 2 4 6 9 7 6 4 1 2 5 6 7 12 16 17 16 15 14 13 13 13 14 15 16 17 17 17 17 17 16 16 15 15 15 15 16 16 17 17 16 17 17 18 18 16 16 15 15 15 14 14 15 16 16 16 16 16 17 18 18 18 18 18 19
3 3 3 5 6 6 6 1 2 3 2 2 3 4 5 4 5 8 9 9 9 9 6 4 2 2 1 1 2 2 1 3 1 2 5 7 7 7 5 3 1 1 4 6 8 12 15 16 16 14 13 13 13 14 15 16 16 17 18 18 19 18 18 17 16 16 16 16 16 17 17 16 16 16 17 17 17 17 17 17 17 17 16 15 15 16 17 18 19 19 19 20 21 21 20 20 20
2 2 3 5 7 6 4 2 3 4 1 2 3 3 4 6 9 9 10 12 10 8 5 3 1 2 1 2 0 1 3 6 3 1 4 7 6 6 4 2 1 2 3 5 9 11 14 16 17 15 14 14 14 15 16 17 18 18 19 19 20 19 19 19 18 16 16 17 18 18 18 17 16 17 17 17 17 16 17 17 17 17 17 17 16 16 17 19 20 20 21 22 23 23 23 22 22
5 4 3 5 6 3 1 2 2 2 3 2 3 3 5 9 9 9 11 10 8 6 4 3 1 2 2 3 1 1 5 7 5 4 5 8 7 5 4 3 2 2 3 5 8 11 14 16 18 17 16 16 15 16 17 18 18 18 19 20 20 20 20 20 19 18 18 19 19 20 20 19 18 18 18 18 18 17 16 17 17 17 17 17 18 17 17 18 19 20 21 22 23 24 24 24 24
6 3 4 4 4 2 2 2 0 4 2 3 3 4 6 10 10 12 12 9 7 5 3 3 0 1 1 3 3 2 6 5 5 7 8 8 7 5 4 4 3 3 4 6 8 11 14 16 18 19 18 18 17 17 18 18 18 19 19 20 20 20 21 21 20 20 20 20 20 20 20 20 19 19 19 19 19 18 17 17 17 18 18 18 18 18 18 18 17 18 19 20 22 23 25 26 27
4 4 3 2 3 1 2 1 3 4 2 4 4 5 6 10 13 13 11 7 4 3 3 3 1 0 1 3 4 7 9 6 5 7 8 7 6 5 5 5 4 4 5 7 9 10 12 15 18 20 20 19 19 18 18 18 18 19 19 20 20 20 21 21 22 22 22 22 21 20 20 20 20 19 19 19 20 20 18 18 17 18 18 19 19 18 18 18 17 17 18 19 20 21 23 26 28
3 5 4 2 2 2 2 1 4 3 2 4 5 6 9 12 14 12 8 5 4 5 5 5 4 2 2 4 4 8 11 10 11 10 8 7 7 7 6 6 5 6 6 7 9 9 11 14 17 19 20 20 19 18 18 18 19 19 20 20 21 21 22 22 23 24 24 24 22 21 20 20 20 20 20 19 20 20 19 19 18 18 18 18 19 19 19 19 18 18 18 18 19 20 22 24 27
4 6 5 3 2 2 1 3 3 3 4 4 6 8 12 13 11 9 7 5 5 6 7 8 8 3 2 5 4 6 12 13 14 11 10 9 7 7 6 6 7 7 6 7 9 10 11 13 15 17 18 19 20 19 19 19 20 20 21 21 22 22 23 23 24 24 25 25 24 23 21 20 20 20 19 19 19 20 20 19 18 18 18 18 19 19 20 20 19 19 19 19 19 20 21 23 25
7 5 3 2 2 3 3 4 3 3 5 5 6 9 11 11 9 8 7 6 6 5 6 9 9 7 3 4 4 8 12 11 11 11 11 9 7 7 7 7 8 8 7 8 10 11 12 12 13 16 17 18 19 20 20 20 21 21 21 22 22 23 23 24 24 25 26 26 26 24 23 21 20 20 19 19 19 20 20 19 18 18 18 18 19 19 19 19 19 20 20 20 20 20 21 22 23
7 6 1 1 3 3 0 4 4 4 5 5 6 9 9 10 9 7 6 4 6 6 7 9 6 9 9 7 6 9 12 8 9 10 9 9 8 7 8 7 8 8 8 9 9 11 13 13 12 14 16 17 18 20 20 20 21 22 22 22 23 23 23 24 24 25 25 26 26 25 24 23 21 20 19 18 18 19 19 18 18 18 18 18 19 20 20 19 19 20 20 21 21 21 21 22 23
5 3 1 2 3 2 3 3 4 5 5 4 5 8 9 10 8 6 6 5 6 6 9 10 4 5 8 7 7 11 13 10 9 10 9 8 7 7 8 7 8 9 9 10 10 10 12 14 14 13 14 16 17 19 19 20 21 22 23 23 23 24 23 24 24 24 25 25 26 26 25 24 23 21 19 19 19 19 18 18 18 18 18 19 19 20 20 20 20 20 20 20 21 22 22 22 22
5 5 3 2 3 3 2 1 4 4 4 5 7 10 10 10 8 7 7 7 7 6 8 11 6 3 5 3 6 11 13 11 10 10 8 7 7 7 8 8 9 9 10 11 11 11 13 15 16 16 15 15 17 18 20 20 21 23 24 24 24 24 24 24 24 24 25 26 27 28 28 27 25 23 22 22 22 21 19 19 19 19 18 18 19 20 20 21 21 20 20 20 21 22 22 22 22
5 7 4 2 1 1 2 2 3 2 2 4 9 12 10 8 8 7 6 6 6 4 5 11 8 3 7 4 6 13 13 11 11 9 7 7 7 8 9 10 10 11 11 11 12 12 13 14 16 17 17 17 18 20 22 22 22 22 24 24 24 24 24 24 25 25 26 27 28 29 30 29 27 26 26 26 25 23 22 21 20 19 19 19 19 20 20 20 20 21 21 21 21 21 22 22 22
6 7 3 2 1 1 2 2 2 1 2 5 9 12 10 6 6 6 5 4 2 3 6 10 10 3 3 3 5 11 12 11 11 8 6 8 9 9 10 11 12 12 13 13 13 13 14 15 16 17 18 19 19 21 22 23 23 23 24 25 25 25 25 26 27 27 28 28 29 30 31 31 29 29 28 26 25 24 23 22 21 20 19 20 21 21 20 20 20 20 20 20 21 21 21 22 22
5 5 3 2 2 2 2 1 2 1 2 5 7 10 8 6 6 5 6 5 2 4 7 9 12 8 4 2 5 11 11 10 9 7 7 9 10 11 12 12 14 14 15 14 15 15 15 15 16 16 18 19 19 20 20 22 24 24 24 26 26 27 28 29 29 30 30 30 30 31 31 31 31 30 28 26 25 24 24 23 23 22 22 22 22 22 20 20 21 21 21 21 21 21 20 21 21
4 2 2 3 1 3 3 3 3 1 3 6 8 9 6 5 6 6 8 8 5 6 9 9 12 14 10 7 7 10 10 10 9 8 8 10 11 13 13 14 15 16 16 16 15 16 16 16 16 16 17 18 20 21 21 21 23 24 26 27 29 30 30 30 31 31 31 31 31 31 31 32 32 31 28 27 26 25 24 24 24 24 24 23 23 23 22 22 22 22 22 23 24 24 22 21 20
4 2 3 2 3 4 4 5 5 2 3 5 7 8 6 3 7 8 6 9 12 11 12 12 12 15 13 11 14 14 12 12 11 10 11 12 13 14 15 15 16 16 16 17 17 16 16 16 17 17 17 18 20 22 23 23 24 25 27 28 29 29 30 31 31 31 32 32 32 31 32 33 33 31 30 30 28 27 26 25 25 24 24 24 25 25 24 23 23 23 24 24 25 26 26 25 23
3 2 3 3 3 4 6 7 7 6 4 5 6 6 6 2 6 7 4 7 11 10 12 13 13 14 13 15 19 18 18 17 16 15 15 15 15 15 16 17 17 17 16 16 17 18 17 17 17 18 19 20 21 22 23 25 26 27 27 28 29 29 29 30 31 31 32 32 33 32 33 33 33 32 32 32 30 29 27 25 25 24 24 24 25 25 25 24 23 23 23 23 24 26 27 27 26
2 2 1 3 2 4 8 9 8 7 5 3 5 4 4 2 3 5 4 7 8 9 11 13 15 16 16 19 21 19 19 20 20 19 18 17 17 17 17 17 17 17 17 16 16 17 18 19 19 20 21 22 23 23 24 25 27 27 28 28 29 29 29 30 31 31 32 33 33 33 33 33 34 34 34 33 32 30 28 26 25 25 24 24 25 25 25 24 22 23 23 23 24 25 27 28 28
3 3 1 3 3 3 7 8 6 6 5 2 5 3 3 4 4 5 6 6 6 9 10 11 13 14 13 16 20 21 18 19 20 19 19 19 18 18 18 17 16 15 15 16 17 17 18 20 21 22 23 25 25 25 25 26 27 28 28 29 30 30 30 30 31 31 32 33 33 34 33 33 34 34 35 34 33 32 30 28 26 25 25 24 25 25 24 23 23 23 23 22 23 25 27 29 30
2 3 3 5 6 2 4 4 4 4 4 2 3 1 2 2 5 8 9 7 8 6 4 5 8 7 6 7 11 19 21 19 17 16 16 18 18 18 18 17 16 15 15 17 19 20 19 20 22 24 25 26 27 28 27 27 29 30 30 30 31 31 31 31 31 32 32 33 33 34 33 33 33 34 35 35 35 34 32 29 27 26 25 24 24 24 23 23 23 23 23 22 23 25 27 28 29
1 2 4 5 5 3 4 2 3 3 2 1 0 2 3 4 8 11 14 16 17 13 7 8 9 9 10 8 8 13 20 19 17 16 16 17 18 18 18 18 17 16 17 18 20 21 21 22 24 25 26 27 29 29 29 28 29 31 31 31 32 32 32 32 31 32 33 33 34 34 34 33 33 33 34 35 36 35 33 30 28 26 25 25 23 23 22 23 23 23 23 23 24 25 26 27 28
2 2 3 4 4 4 4 3 3 2 1 3 3 5 6 8 9 11 16 20 20 18 15 13 14 16 17 18 15 13 16 17 17 17 17 18 19 18 18 18 18 17 18 20 20 22 23 24 24 25 27 28 30 31 31 30 30 31 32 33 33 33 33 32 32 33 33 33 34 35 35 34 33 33 34 34 35 35 34 32 29 27 25 25 23 22 23 23 23 23 23 23 24 25 25 26 26
3 2 4 3 4 5 4 3 2 1 3 4 5 7 10 12 10 13 21 23 19 18 17 15 15 17 17 16 14 15 16 16 16 16 16 17 18 18 18 18 19 19 20 21 21 23 24 24 25 26 27 28 30 31 31 31 31 31 32 33 34 34 35 34 34 34 34 34 35 36 35 35 34 33 33 33 35 35 35 33 30 28 26 25 23 22 22 23 23 23 24 24 24 25 25 26 26
3 2 4 3 5 4 3 3 3 2 4 4 6 8 11 12 9 13 21 19 14 13 13 13 12 14 15 12 10 13 17 17 17 17 16 17 17 18 19 19 20 20 20 20 21 22 23 24 25 26 27 28 30 31 31 32 32 32 33 34 35 35 36 35 36 35 35 35 36 36 36 35 35 34 33 33 34 35 35 34 32 29 27 25 24 23 22 22 24 24 24 24 25 25 25 25 25
1 2 1 1 4 4 3 3 3 3 6 6 7 9 12 9 3 7 10 7 6 7 8 10 11 12 13 11 10 11 14 16 16 16 15 15 17 18 18 18 19 18 18 18 18 20 21 22 24 25 26 27 29 30 31 31 32 33 33 34 35 36 36 36 37 37 36 37 37 37 37 35 35 34 34 33 34 35 35 34 32 30 28 26 24 23 22 23 24 24 24 25 25 25 25 24 25
1 2 1 2 4 4 5 5 3 3 4 4 9 13 13 6 3 9 11 8 7 6 6 8 9 10 10 9 10 11 12 12 13 14 14 14 15 16 17 17 17 17 16 16 17 17 19 20 22 23 25 26 28 29 30 31 32 32 33 34 36 36 37 37 37 38 37 38 38 37 37 36 36 35 34 34 33 34 35 34 33 31 29 27 26 25 23 24 25 24 24 25 24 24 24 25 24
1 2 2 4 6 4 6 6 3 2 0 3 10 11 6 7 8 12 11 11 9 6 6 8 10 10 8 8 8 9 9 8 9 10 11 12 13 14 15 15 15 15 16 17 18 19 20 21 22 24 25 27 29 29 30 31 31 32 33 34 35 36 37 38 38 38 38 38 38 38 38 37 36 35 35 34 34 34 34 34 33 31 29 28 27 26 25 26 25 25 25 24 24 24 25 25 24
2 3 3 3 3 3 7 5 3 3 1 4 7 5 3 7 15 12 9 12 10 7 8 7 10 10 9 8 7 8 8 8 8 9 11 11 11 11 10 10 11 13 15 17 19 20 22 23 24 25 26 28 30 31 32 33 33 34 35 35 36 36 37 38 38 38 38 38 39 38 38 37 36 36 35 35 34 34 34 34 33 32 30 29 29 28 27 27 26 25 25 24 24 25 25 24 24
2 1 1 3 2 2 6 5 4 3 1 2 4 2 5 4 11 14 12 12 10 9 9 7 9 9 8 8 7 7 7 8 9 9 9 8 8 7 9 10 11 13 14 17 19 20 22 23 25 26 27 29 30 32 33 34 35 36 37 38 38 38 38 38 38 37 38 38 38 38 38 37 36 36 35 35 34 34 34 34 33 32 30 29 29 29 28 28 27 26 25 25 25 24 25 25 25
2 1 2 1 1 1 4 2 3 1 1 3 1 2 7 8 4 14 14 12 12 11 9 7 8 8 7 7 6 5 5 6 7 6 7 6 7 9 11 13 13 14 15 17 18 19 20 21 22 25 26 28 29 30 31 33 34 35 37 38 39 40 40 40 39 38 38 38 38 38 37 37 36 36 35 35 34 34 34 34 33 32 30 29 29 29 29 28 27 27 26 26 25 25 25 25 25
2 1 2 2 2 1 1 0 1 0 1 4 3 2 7 6 3 12 14 14 14 11 9 6 6 6 6 5 4 3 3 3 2 2 3 4 9 11 12 12 12 13 15 16 18 18 19 18 18 20 22 24 26 28 28 30 31 33 33 35 37 39 39 40 40 40 39 39 38 38 38 38 37 36 36 35 35 34 34 34 33 32 31 29 28 29 29 29 28 27 26 26 25 25 25 26 26
2 1 3 3 3 4 3 1 1 2 1 3 5 4 10 11 8 12 15 14 15 13 10 4 3 3 4 4 3 3 2 4 6 6 7 9 11 11 10 11 11 13 15 17 18 18 18 18 18 18 19 19 21 24 25 26 28 29 31 32 34 36 38 39 39 40 40 40 40 40 40 39 39 38 37 36 35 34 34 34 33 32 31 30 29 29 29 29 28 27 27 26 25 25 25 27 27
3 4 3 4 4 5 5 1 1 2 3 3 5 6 13 15 13 14 14 12 13 13 7 2 1 3 5 5 6 6 8 11 11 10 10 10 9 9 9 10 13 16 18 20 19 18 18 19 19 20 21 22 22 23 24 25 26 27 29 30 31 34 36 37 38 39 39 40 41 41 41 41 40 39 38 37 36 35 34 34 34 32 31 30 30 29 29 29 29 28 27 26 26 26 26 27 27
4 4 2 5 4 5 6 0 2 1 1 5 7 7 12 16 12 10 15 14 7 4 5 5 4 6 8 8 9 10 12 12 9 8 8 7 8 10 11 14 19 20 21 21 19 18 20 21 22 22 23 24 25 26 26 26 26 26 27 28 30 31 33 35 37 38 38 39 40 41 42 42 41 41 40 39 38 36 35 35 34 33 32 31 30 30 29 29 28 28 27 27 27 27 27 27 26
3 4 4 6 5 6 6 0 3 2 1 6 7 7 12 16 12 10 14 6 4 5 7 8 8 10 11 12 12 11 11 9 8 10 9 7 9 13 15 18 20 18 19 19 16 17 22 24 24 25 25 25 25 25 25 26 26 26 27 28 29 30 31 33 35 36 37 38 39 40 41 42 42 42 42 41 40 38 37 36 35 34 32 31 31 30 29 29 28 28 28 28 27 28 28 27 26
2 3 4 6 5 6 2 3 3 2 1 5 8 8 12 15 12 12 10 2 8 7 10 11 12 13 12 12 11 9 8 8 11 13 12 11 12 14 16 16 14 13 15 13 13 19 25 26 26 26 25 25 24 24 23 24 24 25 26 27 29 30 30 31 33 34 35 37 38 39 41 42 43 43 44 43 42 41 40 39 37 35 33 31 31 30 29 29 29 29 28 28 28 28 28 27 26
3 3 4 5 4 3 2 4 3 3 2 5 8 7 11 16 13 8 2 7 8 8 12 12 13 14 12 12 10 8 9 11 14 13 12 13 13 14 15 13 11 11 10 10 14 22 26 27 27 26 26 25 25 24 23 23 23 23 24 26 27 28 29 29 30 32 34 36 38 40 41 42 43 44 44 45 44 43 42 41 39 36 34 32 31 30 29 29 30 29 28 29 28 28 28 27 25
4 4 4 5 2 2 1 1 0 2 4 7 8 6 10 13 6 1 5 9 10 10 12 12 12 12 12 11 8 8 12 15 15 12 12 12 13 13 13 11 11 11 10 13 19 24 26 27 27 27 28 27 27 26 25 25 24 23 24 25 25 27 28 28 28 30 32 35 38 40 41 41 42 42 43 44 44 44 43 42 39 37 35 33 32 31 30 30 30 30 29 28 28 28 29 27 24
5 5 4 4 2 2 2 3 5 7 5 4 6 6 6 4 4 4 5 8 9 10 12 11 11 13 11 8 10 14 17 16 13 11 12 12 13 13 12 11 11 10 10 15 20 24 25 26 27 28 30 31 31 30 29 27 26 26 26 27 27 27 29 29 30 31 30 31 34 37 38 39 40 40 40 41 41 42 42 41 39 37 35 34 33 32 32 30 30 30 30 29 28 29 28 26 24
3 2 2 2 3 3 4 6 7 5 3 1 2 4 3 1 3 4 5 5 6 9 9 9 10 11 9 11 17 19 17 14 12 11 12 13 13 13 12 12 11 9 10 15 20 23 24 24 26 28 31 32 33 32 31 30 28 27 27 28 28 28 30 30 31 32 32 32 33 34 36 37 38 39 39 39 39 40 40 39 38 38 37 36 34 33 33 31 31 31 30 29 29 29 28 27 26
3 2 4 4 4 3 5 5 3 2 4 3 2 1 3 4 3 4 7 6 6 7 7 9 11 10 12 18 19 16 15 14 14 13 13 15 15 14 13 12 12 10 11 16 21 24 25 24 26 28 31 31 31 32 32 32 31 30 29 29 28 28 29 31 30 30 31 32 33 34 36 38 39 40 40 39 40 40 40 40 39 39 39 37 36 35 34 33 32 31 30 30 30 29 28 29 29
3 3 2 3 2 4 4 4 2 3 6 5 4 4 2 5 3 4 8 8 8 6 5 6 9 15 20 20 17 15 15 15 14 14 15 16 16 15 14 12 11 10 13 19 24 26 26 26 27 28 28 27 27 29 30 31 32 32 32 31 30 30 30 31 31 30 31 31 31 32 34 37 40 41 41 41 41 41 41 41 41 41 40 39 37 37 36 34 32 32 31 31 30 30 30 30 30
1 2 0 2 4 4 3 3 4 4 5 5 3 4 2 4 2 2 5 7 8 6 5 8 14 19 19 17 16 14 13 14 15 15 16 17 16 16 14 12 10 9 15 23 26 27 27 27 28 28 26 24 25 27 29 29 29 30 32 34 34 34 34 33 32 31 31 31 31 31 31 35 38 40 41 42 42 42 42 42 42 42 42 41 39 38 37 35 33 33 32 32 31 31 31 30 30
0 1 2 4 4 3 2 3 4 4 3 3 3 4 2 4 2 2 2 4 5 5 6 8 13 17 15 15 15 12 12 14 15 17 18 17 16 16 15 12 9 10 19 27 27 28 30 29 28 28 27 27 29 30 30 31 30 29 30 32 35 37 37 36 35 35 34 32 32 32 31 33 36 39 41 42 42 43 43 42 42 42 42 41 41 40 38 36 35 34 33 33 32 31 31 31 31
2 3 4 5 3 3 2 4 2 2 3 2 2 3 0 2 1 1 2 2 4 5 6 6 11 15 14 14 13 12 12 13 16 19 21 20 18 18 16 11 8 13 24 28 29 33 33 30 28 28 27 28 31 32 31 32 34 32 30 32 34 35 36 36 38 38 37 35 33 32 31 32 35 38 40 41 42 43 43 43 42 41 41 41 41 40 39 38 36 35 34 34 33 33 32 31 31
1 2 4 4 1 1 0 2 1 1 2 1 1 2 1 2 1 1 2 3 5 6 6 6 9 12 12 12 13 13 12 14 17 21 23 22 21 20 15 9 9 18 27 30 33 35 32 29 29 29 28 28 30 31 31 32 33 33 33 33 34 34 34 35 37 38 38 38 36 34 32 31 33 36 39 40 41 42 43 43 43 42 41 41 41 40 40 39 37 36 35 35 35 34 34 33 32
2 3 3 3 2 1 1 1 1 2 2 2 1 1 3 4 2 5 5 5 6 7 9 8 9 10 10 11 12 12 13 15 17 21 24 23 22 21 14 11 14 22 29 33 35 34 31 31 31 31 31 30 30 31 32 32 32 33 34 35 34 33 33 34 36 38 38 37 37 36 34 32 32 33 36 39 41 42 42 43 44 44 43 41 41 40 40 39 38 37 36 37 36 36 36 35 34
3 2 1 2 1 2 3 3 3 3 1 3 2 1 3 4 2 7 7 7 8 10 12 11 11 11 10 11 12 13 15 17 18 22 25 24 23 22 17 16 19 23 29 34 34 32 31 32 33 34 33 32 32 31 30 31 32 34 34 34 33 31 34 36 38 38 38 37 36 36 35 35 34 33 34 36 40 41 42 43 43 44 43 42 41 41 40 39 38 37 37 37 37 37 37 37 36
2 1 2 1 1 2 3 2 2 3 3 2 2 1 3 4 2 7 9 11 12 13 13 13 14 13 11 12 13 16 19 20 21 25 26 25 26 25 20 18 21 26 31 33 32 31 32 33 35 36 35 34 34 33 32 32 33 34 34 34 33 34 36 37 37 38 38 37 37 37 37 36 35 35 34 34 36 39 42 43 42 43 43 42 41 41 40 40 39 38 38 38 38 37 37 37 38
1 1 2 1 1 2 2 3 4 5 4 3 2 2 3 1 4 7 10 11 11 13 13 13 14 13 13 14 16 20 22 23 24 25 26 27 26 22 20 22 28 32 32 31 31 32 34 35 36 36 35 36 35 35 36 36 35 34 33 34 36 37 38 37 36 37 39 39 40 39 38 36 35 35 34 33 33 36 40 43 43 44 44 42 42 42 41 41 40 39 39 38 38 37 38 38 38
0 1 1 2 2 1 1 4 5 3 4 3 3 3 2 3 3 5 7 7 8 10 10 12 13 13 13 15 18 21 23 23 23 24 25 24 21 19 22 29 34 34 31 31 33 34 34 36 36 36 36 36 36 37 38 38 38 37 36 37 38 39 38 37 37 37 39 41 41 39 38 36 34 33 33 32 32 33 37 41 44 45 45 43 43 42 42 41 40 40 40 39 39 38 38 39 39
1 1 3 2 1 2 1 2 2 1 4 4 3 3 3 2 3 3 4 6 5 6 7 9 12 14 16 18 22 23 23 23 23 24 24 22 20 23 30 35 35 33 32 33 33 34 35 36 36 36 37 37 37 38 39 39 39 40 41 41 41 40 38 38 39 39 40 40 41 40 40 38 36 34 33 32 32 32 34 38 42 45 46 44 43 42 41 40 40 41 40 40 39 38 38 39 39
1 3 4 1 1 1 1 1 2 2 4 3 3 5 5 3 3 3 3 4 5 6 6 7 11 17 21 23 24 25 25 25 26 26 23 22 25 31 35 35 34 32 32 33 35 37 38 36 35 36 38 38 39 39 40 41 42 42 43 43 42 41 40 40 41 42 42 41 41 41 42 41 39 37 36 34 32 32 33 36 40 43 45 44 43 41 40 40 40 40 41 40 39 38 39 39 39
1 3 3 1 1 2 2 1 0 2 4 4 3 3 1 1 3 4 2 4 6 6 6 7 13 20 21 22 23 24 25 27 27 24 22 26 31 32 33 32 31 31 32 34 38 39 37 34 36 39 41 41 40 40 42 43 43 43 43 43 42 41 42 42 42 42 42 42 41 41 42 41 39 37 36 35 34 32 33 36 39 41 43 43 42 41 40 40 40 41 41 41 40 39 39 40 40
1 1 1 1 1 1 1 2 2 2 4 3 4 3 1 1 2 4 5 6 8 8 7 7 14 18 18 19 22 22 25 28 24 21 25 28 29 30 31 31 31 32 34 36 37 35 33 35 40 43 43 43 42 42 43 44 44 43 42 42 42 43 44 44 44 43 43 42 42 41 41 40 39 37 36 34 34 34 34 36 38 40 42 43 42 42 41 40 41 42 42 42 41 40 40 40 40
2 2 2 2 2 1 2 4 2 1 2 2 3 4 3 2 2 5 6 7 8 11 10 9 13 18 18 21 23 24 28 28 22 21 25 26 28 33 36 36 35 34 34 34 33 34 36 41 45 45 45 43 42 44 46 45 44 43 42 42 43 44 45 44 44 44 44 43 42 41 40 40 40 39 37 34 32 32 34 36 37 39 41 43 43 42 42 41 42 43 43 42 42 41 41 40 40
Wind_Direction
128 122 103 75 61 10 288 251 257 222 237 82 108 131 91 84 121 129 130 139 121 76 75 79 66 50 48 64 51 59 60 8 18 177 186 149 164 173 166 168 176 62 25 16 357 341 348 354 349 345 343 341 344 346 349 352 354 354 356 359 0 2 3 2 3 3 0 358 354 351 348 350 351 350 348 342 341 339 337 331 324 313 307 306 300 297 294 297 299 298 298 293 291 298 303 305 302
140 121 82 358 354 314 287 215 246 225 200 142 87 82 111 135 145 116 115 114 98 119 112 90 77 59 63 79 190 190 78 55 119 161 150 155 170 175 177 177 139 55 29 17 350 346 352 352 349 345 342 343 346 350 354 357 357 358 358 359 359 360 358 359 3 358 356 356 352 349 346 350 348 344 342 340 339 338 339 339 336 328 318 310 302 298 294 290 289 290 293 293 292 297 303 305 304
145 122 73 325 286 257 278 214 244 261 197 141 90 94 134 146 107 85 90 103 109 125 123 108 99 53 17 270 202 217 88 94 143 170 159 167 184 185 183 182 157 24 11 5 343 345 352 351 351 350 347 348 351 356 359 1 1 360 360 359 359 358 354 354 356 353 353 350 347 346 343 345 344 340 337 337 335 336 340 340 338 334 326 318 310 302 296 293 290 288 288 289 291 294 299 301 300
104 74 66 314 276 234 255 229 246 289 354 84 100 139 153 115 105 97 101 114 121 128 125 129 134 88 262 274 7 300 139 140 161 202 160 172 204 205 189 204 231 328 348 347 336 342 355 355 357 359 358 359 358 2 3 3 3 1 0 359 359 358 355 353 352 353 351 346 345 343 340 342 343 339 336 335 331 333 337 336 336 332 328 324 319 313 305 300 296 294 291 288 289 292 296 298 296
49 22 6 319 286 248 282 265 270 356 28 24 116 154 132 108 115 118 118 123 123 121 125 146 153 124 259 277 297 326 142 160 183 199 192 190 221 229 211 236 260 308 319 333 336 344 356 359 2 6 6 6 5 6 6 4 3 1 360 359 359 359 358 356 353 352 349 345 343 341 339 341 343 339 337 334 330 332 334 333 334 328 326 325 322 320 314 308 303 299 296 293 289 290 292 293 294
20 324 305 303 274 294 297 258 31 84 31 333 114 131 113 115 124 122 124 123 117 122 140 162 158 104 248 235 223 195 161 187 194 199 220 224 236 233 227 254 277 294 310 320 332 345 354 357 4 10 11 11 10 9 7 6 3 1 0 360 0 360 359 359 357 354 350 347 343 340 340 341 342 340 337 335 331 331 333 333 332 328 325 324 321 320 318 315 310 304 300 298 295 293 292 290 290
13 260 258 288 254 260 267 234 71 88 18 359 93 129 112 118 128 126 134 129 125 165 190 188 158 144 206 184 201 215 206 220 221 215 238 252 249 235 238 258 267 276 304 313 327 342 347 355 6 12 14 14 12 10 9 8 6 4 3 1 1 1 1 0 359 358 355 352 347 342 340 341 341 340 337 335 333 330 333 334 332 330 327 325 323 321 319 316 315 311 307 303 300 298 295 293 290
15 301 280 280 250 201 256 70 68 58 72 43 57 105 113 124 135 136 154 156 158 176 190 189 177 207 222 189 203 227 225 234 242 244 254 258 246 235 240 250 260 272 295 307 319 334 343 356 6 10 13 15 13 11 10 9 8 7 5 4 4 3 2 2 1 360 357 355 351 346 342 342 341 340 338 335 333 330 332 335 333 332 329 328 325 324 321 319 318 315 313 309 305 302 298 297 294
274 294 278 251 262 218 212 109 94 82 117 95 64 93 114 131 144 147 165 162 153 166 181 180 180 180 162 194 211 222 226 237 247 250 249 248 238 233 242 250 263 275 290 303 312 330 346 356 2 5 10 12 11 10 9 9 8 8 7 5 4 4 3 3 2 1 359 357 354 350 345 343 342 340 337 336 333 330 333 334 333 332 330 329 327 325 324 323 322 319 316 313 310 308 303 301 298
262 248 276 288 272 232 195 123 114 111 121 121 112 119 126 140 152 157 177 175 155 162 168 165 185 208 211 210 194 216 234 240 241 240 241 242 232 233 243 248 260 276 290 301 311 325 342 353 354 358 3 6 7 7 7 7 7 6 6 5 4 4 3 2 2 2 1 360 357 353 348 344 343 341 338 337 333 331 334 334 332 332 331 330 328 327 325 325 325 322 320 317 315 313 309 307 304
270 223 204 295 267 258 90 102 113 115 116 118 131 141 142 152 160 165 187 188 158 149 146 150 189 225 239 249 210 214 233 240 239 237 236 236 232 234 241 247 258 274 291 301 309 318 330 342 346 351 355 358 0 1 4 4 4 4 3 3 2 1 2 1 1 1 1 1 359 355 351 346 343 343 342 340 335 332 335 334 332 332 332 330 329 328 327 327 325 323 322 320 319 316 314 312 309
285 254 201 263 282 354 27 79 115 115 128 142 147 152 156 160 167 173 186 195 171 168 174 177 201 215 225 239 208 209 223 234 241 234 230 232 234 237 246 256 265 274 286 297 307 310 317 329 337 345 348 350 353 353 356 0 1 360 360 0 359 359 359 358 358 360 1 1 360 357 353 349 346 345 344 343 337 335 336 334 332 332 332 330 329 328 327 327 326 324 322 321 320 318 317 315 313
321 325 331 277 311 17 359 56 114 127 157 176 162 158 163 167 180 188 186 201 199 200 198 196 199 205 234 230 183 207 221 228 233 230 230 234 238 244 255 264 272 278 282 291 302 305 310 320 326 333 341 343 344 346 348 354 358 355 355 356 356 356 356 356 356 358 359 360 0 359 356 352 349 347 347 346 342 340 340 336 333 334 333 330 328 328 328 327 326 325 324 323 321 320 318 316 315
338 337 332 270 305 8 337 95 129 175 162 130 137 150 165 178 192 192 195 211 205 199 180 185 186 208 251 241 178 207 218 218 225 232 232 236 246 251 259 266 273 280 285 291 295 299 302 309 315 322 333 338 339 343 344 347 352 351 350 351 351 351 352 354 354 356 357 359 1 360 358 355 352 352 350 347 343 340 339 337 335 334 331 329 328 328 328 327 326 325 325 325 323 322 320 318 317
334 336 308 267 267 176 8 74 111 296 99 104 125 147 162 178 184 177 212 232 160 163 165 177 189 187 254 258 162 192 210 207 214 229 235 240 251 257 260 265 273 279 284 289 292 295 297 302 309 314 323 331 335 339 340 341 344 346 345 344 345 346 350 353 353 354 356 358 359 359 358 356 355 355 350 344 340 338 338 335 333 332 331 331 330 329 329 326 325 325 325 325 324 322 321 320 319
325 337 281 263 251 142 8 6 76 352 100 113 137 154 161 168 174 176 214 223 111 190 209 202 207 217 244 286 152 175 198 198 208 231 239 243 251 260 264 265 271 277 281 287 290 294 297 301 305 308 314 321 327 330 333 334 337 340 339 338 340 345 348 350 352 352 354 355 356 358 356 356 357 355 348 342 340 338 336 333 332 333 335 334 331 329 328 326 325 326 325 325 325 323 322 321 320
325 336 256 268 273 89 9 354 52 232 118 118 153 164 178 169 177 211 225 224 233 232 238 234 227 238 246 248 222 198 206 211 222 241 245 248 254 261 266 269 271 276 281 286 291 294 297 301 303 303 307 313 318 322 325 328 332 334 334 336 340 344 344 346 349 349 350 351 353 354 354 355 356 352 347 345 342 338 335 333 334 335 335 333 330 328 328 328 327 328 329 328 328 326 324 323 321
331 285 262 315 8 53 3 19 30 312 120 133 164 174 212 176 163 205 227 225 231 237 246 243 235 245 244 241 245 236 228 231 239 249 256 256 258 263 268 273 274 277 282 287 293 297 299 302 304 304 305 309 313 318 322 325 328 330 331 334 337 339 339 341 344 345 346 347 349 351 352 354 352 349 348 348 345 340 336 334 333 332 332 331 329 328 329 328 328 330 331 329 327 326 326 325 324
340 308 307 14 34 50 24 37 34 4 70 130 156 181 225 154 144 184 218 233 227 229 241 237 230 239 237 234 247 248 240 241 247 252 260 262 263 267 270 273 276 282 285 289 296 300 302 302 303 303 304 306 310 316 319 321 324 326 328 330 331 333 334 336 339 340 341 342 345 347 349 350 348 348 349 348 346 341 337 333 330 329 329 329 327 327 327 328 328 328 328 327 325 326 326 326 326
3 343 359 55 71 70 44 47 47 22 36 124 146 169 231 227 152 171 223 263 247 239 242 229 224 231 230 231 244 253 248 244 248 253 258 263 266 268 270 269 272 279 287 293 295 296 299 301 302 302 302 304 308 313 316 318 319 321 323 325 326 328 330 331 334 335 336 338 340 343 345 346 345 348 348 348 346 342 337 332 330 327 325 325 325 324 325 327 326 324 325 326 324 325 325 325 325
14 358 44 41 2 60 55 50 52 32 21 62 128 145 252 239 206 197 236 277 256 251 255 236 230 235 230 228 236 244 247 246 248 252 255 259 264 267 269 267 266 270 278 287 288 287 290 293 297 301 301 303 306 311 314 315 315 317 320 320 320 323 326 327 329 330 331 333 335 338 340 341 344 345 346 346 344 342 338 334 329 325 323 322 323 323 324 324 323 322 324 325 322 322 324 324 324
29 34 69 35 2 48 80 63 73 55 18 33 134 171 281 238 226 231 237 246 242 261 305 263 241 239 223 210 230 237 237 241 246 250 253 258 263 266 269 269 266 263 264 270 277 282 284 286 292 298 300 302 306 309 312 313 313 315 316 317 317 319 322 323 324 326 326 328 330 332 334 337 340 342 343 344 343 341 339 334 328 323 320 320 321 322 321 320 319 321 322 321 320 320 322 322 321
37 82 80 48 22 73 107 110 118 74 8 301 235 286 310 288 267 256 243 241 248 261 288 286 264 248 241 243 258 238 227 234 245 253 260 264 266 268 270 270 268 266 266 268 271 277 281 286 291 296 299 300 304 308 309 310 311 312 313 314 315 317 318 319 321 321 322 324 325 326 329 333 335 337 340 341 341 340 338 334 328 322 319 318 320 320 318 317 317 318 318 318 317 317 318 318 318
62 116 105 72 68 102 129 146 157 111 318 287 302 293 285 270 272 277 258 251 255 258 263 270 269 265 265 266 264 239 223 235 248 258 267 268 270 272 273 271 270 268 268 271 273 276 282 289 292 294 297 299 302 306 307 309 310 311 311 312 314 315 315 316 318 318 319 321 321 322 325 327 330 333 336 337 338 338 336 334 330 324 320 319 319 319 316 314 314 314 314 313 313 313 313 313 314
48 107 131 124 113 121 140 151 177 232 271 275 285 272 269 263 268 279 269 266 265 263 263 262 263 268 272 273 261 235 227 235 244 251 256 261 267 271 273 275 274 272 271 274 276 279 286 290 292 294 296 299 301 304 306 309 311 311 311 311 312 313 313 315 316 315 317 317 318 319 320 323 325 328 330 332 334 335 335 333 331 328 323 320 319 317 313 310 309 309 309 309 309 310 309 309 309
27 108 133 150 142 136 148 182 200 238 261 265 276 266 268 269 271 275 272 273 266 255 253 248 246 254 265 271 259 237 232 236 240 245 249 254 260 266 274 279 281 282 282 281 280 283 288 289 292 297 298 300 301 304 307 309 310 311 311 310 311 311 312 313 313 313 314 314 315 316 317 319 321 323 325 328 330 332 333 333 332 330 325 320 316 313 309 305 304 305 306 307 308 307 306 307 308
69 122 126 145 148 159 176 226 221 247 267 260 273 274 270 268 260 266 260 248 237 235 233 236 237 241 255 262 255 246 240 240 240 244 249 254 262 272 281 287 290 294 294 292 291 292 293 293 295 300 302 302 302 305 308 308 309 311 310 310 310 311 311 311 311 311 312 312 312 312 314 316 317 318 321 323 325 328 331 333 332 330 326 320 315 311 306 301 300 303 304 304 305 304 304 307 309
158 148 284 192 179 191 197 227 228 248 271 264 284 282 267 237 196 246 239 225 240 244 231 235 247 250 255 251 244 247 248 247 241 239 247 257 271 283 291 297 301 304 306 308 308 306 303 302 302 303 305 303 302 306 309 309 310 311 310 309 310 310 310 309 309 310 310 309 309 309 310 312 313 315 317 319 321 324 328 331 331 330 327 321 314 310 304 300 300 302 302 302 303 304 305 307 307
253 211 275 204 190 201 201 206 201 221 270 326 305 295 260 186 213 249 233 228 237 232 231 234 244 250 253 250 242 244 250 252 244 248 262 275 284 288 295 302 306 308 314 317 316 315 314 311 307 306 307 303 304 306 307 309 310 309 308 307 308 308 308 308 308 309 308 307 307 307 308 309 310 311 313 315 317 320 323 328 330 329 326 322 315 309 304 301 301 302 303 303 303 303 303 304 303
236 219 278 233 202 195 188 182 178 207 208 339 327 320 300 202 216 230 204 211 216 213 229 235 243 239 232 240 248 253 257 260 264 277 287 295 300 303 311 316 315 315 319 321 320 319 317 314 308 307 308 304 303 303 303 304 305 304 304 304 304 305 306 307 308 308 307 307 306 306 306 307 308 308 310 312 314 316 319 323 327 328 325 321 316 310 305 303 302 302 302 300 299 299 299 299 298
214 122 289 236 253 179 162 162 181 194 152 8 360 276 290 280 218 209 193 199 201 208 228 248 259 246 223 220 237 258 263 270 282 294 301 316 327 338 356 358 351 342 335 330 327 322 317 314 307 305 307 304 301 300 299 299 299 299 299 299 299 299 300 302 304 306 306 306 305 305 306 306 306 306 307 309 310 312 314 318 323 326 324 320 316 311 305 302 301 299 299 297 297 297 296 295 294
217 85 314 253 314 171 162 169 184 193 109 155 71 252 276 318 227 189 189 201 206 216 238 258 266 258 238 218 218 249 265 276 285 298 305 326 356 16 22 17 8 355 344 336 330 324 319 316 308 303 304 303 302 300 299 299 299 298 297 297 297 296 296 297 299 300 301 302 303 304 304 304 304 304 305 306 307 309 310 313 319 323 322 318 315 310 305 301 299 297 296 295 295 295 293 293 292
231 224 312 321 336 312 206 191 169 290 24 180 191 253 280 300 161 179 202 215 214 223 242 257 267 258 240 224 212 231 259 273 292 318 332 12 29 34 28 15 2 348 341 336 331 327 323 320 314 308 305 304 302 301 302 303 302 300 298 297 297 296 296 297 297 297 297 298 299 300 300 301 301 302 303 303 304 306 307 309 313 318 320 317 313 310 305 301 297 294 293 291 291 290 291 291 291
296 327 325 302 327 330 286 236 171 191 154 210 207 227 266 269 260 253 247 226 214 221 232 249 288 239 196 193 185 163 139 97 84 76 64 48 39 34 20 7 355 346 339 333 329 325 325 325 323 322 320 315 309 306 308 309 307 304 302 299 297 297 297 298 297 296 296 296 296 297 297 298 298 299 300 300 301 303 304 305 308 313 316 316 312 309 306 301 296 291 290 288 285 283 284 285 286
301 324 323 308 330 314 288 248 189 198 176 252 259 251 265 272 275 279 280 263 234 220 205 149 79 153 151 145 134 122 107 92 84 74 61 56 51 30 10 1 349 343 337 333 331 327 328 329 329 331 330 328 325 322 321 320 316 311 308 305 301 298 298 299 298 297 296 295 295 295 295 295 296 296 297 298 299 299 300 302 305 308 312 314 311 307 305 301 296 290 287 286 283 281 280 280 281
295 307 287 285 294 283 288 5 120 63 280 267 266 258 272 284 286 292 297 289 256 197 120 102 128 142 138 129 118 111 101 89 80 63 52 60 52 18 357 350 344 341 339 340 341 338 340 339 336 337 335 334 332 330 327 325 322 319 315 312 307 305 303 300 299 299 298 297 296 295 294 294 294 294 295 296 297 297 297 299 301 303 306 310 310 307 304 300 295 289 285 283 282 281 281 280 280
295 298 272 268 269 272 282 90 114 67 327 260 262 269 279 283 287 299 299 295 128 126 117 129 148 140 129 121 112 106 98 88 75 66 66 64 34 12 358 353 352 350 346 347 347 345 349 348 344 343 341 339 336 332 328 324 322 320 318 315 312 311 307 303 301 301 300 299 298 296 294 293 293 293 294 295 295 296 296 296 297 298 301 305 307 306 302 298 293 288 283 279 278 277 278 278 278
282 269 273 275 265 273 307 103 145 105 65 271 275 282 281 282 288 296 290 139 122 140 142 147 144 132 124 118 113 107 100 88 75 65 62 52 26 7 358 356 358 355 349 346 342 345 351 352 350 348 346 344 341 338 332 326 322 319 317 316 315 311 307 305 303 302 301 300 298 297 295 294 294 294 294 294 294 294 295 294 294 294 296 299 302 302 299 296 292 287 282 278 275 273 273 274 274
260 246 268 275 263 287 14 93 147 132 114 276 291 302 287 283 286 292 291 113 112 123 130 135 133 129 122 112 108 103 90 76 67 54 40 28 8 353 352 353 350 344 338 329 335 345 351 354 354 352 350 347 344 342 337 331 325 318 315 315 313 309 306 304 300 298 297 297 298 298 297 296 295 295 295 294 293 293 293 293 292 291 291 294 297 297 296 294 292 288 282 278 275 272 270 271 269
233 226 242 263 313 2 285 115 36 262 244 269 299 303 283 284 278 39 76 104 110 110 115 119 120 116 112 111 109 91 81 71 60 43 24 11 357 352 355 353 350 348 334 327 343 351 350 349 349 349 349 349 348 346 342 338 332 326 321 320 318 312 309 308 303 298 295 294 296 296 296 296 296 296 296 295 293 293 292 291 290 288 288 291 293 293 293 292 291 288 282 277 274 270 269 268 265
234 215 231 261 344 30 256 311 321 292 273 276 312 301 275 268 177 134 85 107 116 120 126 125 118 114 115 119 99 81 73 64 47 29 14 5 359 359 360 356 358 360 343 340 353 356 350 346 343 341 343 345 346 346 345 343 341 337 333 330 329 324 320 319 315 312 306 300 297 297 297 296 296 296 296 296 295 294 293 291 289 286 286 288 290 291 290 289 288 285 282 277 272 269 267 266 262
275 246 347 10 33 15 303 322 329 312 304 241 359 323 290 231 173 152 121 130 131 136 143 141 140 139 126 93 79 72 61 48 35 25 15 7 3 2 2 2 4 1 346 347 353 353 351 349 343 341 340 341 341 341 341 340 341 342 341 337 335 330 326 325 322 318 314 309 304 301 299 296 295 296 296 296 296 295 294 292 289 286 285 287 288 288 288 287 285 283 281 276 271 268 263 261 258
292 293 9 34 31 339 293 317 338 310 298 256 165 216 275 317 311 154 148 151 136 146 166 164 161 142 99 78 69 60 48 38 28 22 14 6 4 2 0 360 2 354 343 347 350 350 350 348 346 344 340 338 338 338 337 336 335 337 339 340 339 334 329 327 326 320 314 310 306 301 298 297 296 295 296 296 297 296 294 292 289 286 285 286 286 285 285 286 284 280 278 273 269 265 259 256 256
263 246 6 16 316 282 282 315 281 247 300 282 192 170 256 297 300 160 153 145 139 159 174 142 111 88 80 71 59 49 42 33 24 17 8 4 1 358 355 354 356 347 343 349 349 349 348 345 343 343 342 340 339 339 336 334 333 331 332 335 338 338 334 332 331 326 321 315 308 302 297 295 294 294 295 296 296 296 294 292 290 288 286 285 284 283 283 284 281 277 273 270 266 261 257 254 255
251 210 40 288 261 272 287 294 261 259 307 294 200 158 236 274 251 164 154 136 134 139 105 75 72 75 75 65 54 48 42 32 24 13 3 0 357 355 351 347 347 340 345 352 351 348 346 342 340 341 342 338 333 335 335 333 333 331 330 330 332 333 333 332 331 329 327 323 315 309 301 294 292 292 293 295 295 295 294 292 291 289 287 286 284 282 281 280 278 275 270 267 264 260 257 254 253
261 249 242 252 240 242 249 239 259 269 270 274 211 175 229 282 249 174 145 108 102 97 80 72 76 74 65 59 54 48 41 28 17 9 3 358 355 354 347 338 335 337 348 353 352 348 345 342 340 340 340 336 332 333 335 335 334 332 332 331 329 328 327 327 327 326 326 325 320 315 307 297 292 291 291 292 293 293 292 291 290 289 288 287 284 281 279 278 276 273 268 264 261 259 256 253 250
322 285 267 267 230 183 210 223 241 285 257 248 195 186 205 309 308 73 83 99 110 106 87 73 73 64 53 55 50 40 32 17 9 6 1 357 354 353 345 333 326 338 350 353 349 345 343 341 339 337 338 337 335 335 335 336 334 332 332 331 327 323 322 322 322 321 322 323 322 319 313 303 295 291 290 290 290 290 289 289 289 289 288 285 283 281 280 278 275 272 268 262 258 256 254 251 249
343 285 284 300 276 127 159 220 174 208 254 245 264 303 250 224 247 90 116 102 99 105 94 77 68 58 51 51 40 30 20 10 9 5 1 358 354 351 344 327 325 342 351 351 347 345 343 340 338 337 336 334 333 333 333 332 330 328 329 331 328 322 320 319 318 317 317 317 318 318 315 307 299 293 290 288 288 287 286 286 287 286 286 284 283 283 280 278 274 270 266 261 257 254 251 249 246
229 269 310 335 323 308 270 239 229 225 219 184 169 322 255 241 179 137 131 95 91 98 95 90 78 65 56 48 33 23 15 8 7 6 3 358 354 353 344 327 335 346 349 349 346 345 343 340 337 335 332 330 330 330 329 328 325 324 325 328 329 326 322 320 318 315 313 312 312 313 313 309 303 296 291 288 287 286 285 284 284 284 285 285 285 283 280 276 272 268 264 261 258 254 251 248 246
240 251 27 11 339 313 287 266 260 269 260 186 163 86 270 272 146 131 124 110 108 103 103 96 76 65 56 44 29 18 13 8 6 6 3 358 356 351 336 329 338 343 345 346 346 345 341 339 338 335 331 328 329 329 328 327 324 323 323 324 326 326 323 321 319 315 311 310 309 308 308 308 305 300 295 290 288 286 284 282 283 282 282 283 285 283 279 275 271 267 262 259 257 255 252 248 246
252 171 99 128 177 252 261 286 286 282 301 261 157 93 275 270 155 130 115 111 104 95 100 89 67 57 48 36 25 17 13 9 4 3 1 358 354 347 339 340 343 342 343 344 345 345 342 339 337 335 332 329 329 327 326 324 320 318 318 318 319 318 316 316 316 315 312 310 308 305 304 304 304 302 299 295 289 285 283 281 280 280 278 280 283 282 278 274 270 265 261 257 255 254 252 249 246
260 71 53 192 210 255 265 299 282 272 297 286 183 233 271 73 111 127 115 105 93 84 83 73 59 47 36 29 23 18 12 7 3 0 358 354 352 352 351 350 347 345 345 345 345 344 342 338 335 333 331 329 328 326 323 321 317 313 310 310 310 311 310 310 311 312 311 309 306 303 300 300 303 302 301 298 292 285 282 281 279 278 277 277 280 280 276 272 268 264 260 254 251 251 250 249 247
261 69 338 230 198 102 299 293 282 266 281 248 189 238 244 98 118 151 119 89 81 77 72 65 52 37 32 29 24 17 10 6 1 356 353 351 353 354 349 346 346 347 346 344 344 344 341 338 335 333 331 330 329 327 325 323 319 314 309 307 307 308 308 308 308 307 307 306 303 300 298 297 299 301 302 301 296 287 281 279 278 278 276 274 277 278 274 271 267 263 258 253 250 248 248 247 246
103 206 286 293 48 80 97 299 309 295 267 234 194 245 244 209 226 183 105 68 67 66 56 50 36 25 23 22 18 13 7 2 356 352 352 353 352 347 344 345 346 345 344 343 343 342 339 337 335 333 332 330 329 327 326 324 321 317 313 310 308 307 307 308 308 306 306 305 301 299 298 295 294 297 301 303 301 293 284 280 278 277 275 273 274 274 271 268 265 260 256 253 249 247 245 245 245
159 259 294 347 90 318 188 244 299 280 274 268 242 249 263 257 195 140 76 61 66 45 37 35 24 19 17 15 11 6 2 358 353 352 353 351 347 345 345 345 343 342 341 342 341 338 336 336 336 335 332 329 326 325 324 322 320 317 314 312 310 309 307 307 307 306 306 304 301 298 298 296 293 292 295 299 301 297 291 288 284 279 274 271 271 271 267 263 259 256 253 251 249 245 243 243 243
186 287 315 78 150 215 196 216 245 256 275 286 269 247 275 275 142 121 81 79 78 46 33 29 20 17 14 11 7 3 0 356 351 349 348 348 349 349 348 344 342 340 338 336 334 333 333 334 334 334 331 328 324 323 322 321 320 318 316 313 311 309 308 306 306 306 304 302 300 298 296 294 292 290 292 294 297 295 292 291 289 282 274 269 268 267 264 259 255 253 251 249 247 245 243 243 242
143 205 199 144 226 198 352 289 195 215 261 275 288 282 211 204 126 98 68 68 71 52 40 26 15 12 11 10 7 3 358 351 346 346 348 352 354 352 347 341 337 334 333 333 332 332 332 331 331 331 330 327 324 323 322 321 319 318 316 314 311 310 308 307 306 305 303 301 299 297 295 293 290 289 290 292 294 294 292 292 290 282 272 267 265 264 261 257 252 251 249 247 246 244 243 243 242
129 178 195 183 197 150 343 288 210 160 252 244 283 277 245 206 112 72 60 68 69 53 41 25 14 10 7 9 7 360 352 344 340 347 353 356 354 349 344 340 337 336 336 336 334 332 331 329 328 328 327 325 323 321 321 320 319 318 317 314 312 311 310 309 308 306 304 302 300 297 294 291 289 288 289 291 293 295 298 299 294 283 273 268 265 263 260 256 252 249 248 246 245 243 243 242 241